Weather Roundup
Issued by NWS

Home | Current Version | Previous Version | Graphics & Text | Print | Product List | Glossary Off
Versions: 1 2 3 4 5 6 7 8 9 10 11 12 13 14 15 16 17 18 19 20 21 22 23 24 25 26 27 28 29 30 31 32 33 34 35 36 37 38 39 40 41 42 43 44 45 46 47 48 49 50

555
NZUS93 KARX 191010
HRRWXR

CURRENT HOURLY OBSERVATIONS ACROSS
MUCH OF THE UPPER MISSISSIPPI VALLEY
NATIONAL WEATHER SERVICE LA CROSSE WI
400 AM CST SUN FEB 19 2017


...SOUTHEAST MINNESOTA...


CITY           SKY/WX    TMP DP  RH WIND       PRES   REMARKS
ROCHESTER      CLEAR     32  32 100 S7        29.91R WCI  26
ROCHESTER/MAYO FAIR      36  37 100 SE5       29.92R WCI  32
WINONA         CLEAR     30  30 100 CALM      29.94S
AUSTIN         FOG       30  28  93 CALM      29.90S VSB 1/2
ALBERT LEA     FOG       30  30 100 CALM      29.90S VSB 1/4
DODGE CENTER   CLOUDY    37  36  93 CALM      29.90S
PRESTON        CLEAR     34  33  95 CALM      29.92R
OWATONNA       CLOUDY    34  30  86 SE7       29.90R WCI  28
FARIBAULT      PTCLDY    28  28 100 CALM      29.91R
$$

...ELSEWHERE IN MINNESOTA...


CITY           SKY/WX    TMP DP  RH WIND       PRES   REMARKS
MINNEAPOLIS    CLOUDY    33  30  88 E5        29.91R WCI  29
INTNL FALLS    CLOUDY    29  27  92 CALM      29.89R
DULUTH         PTCLDY    33  30  88 N5        29.89R WCI  29
RED WING       CLEAR     30  28  93 E3        29.92R
REDWOOD FALLS  PTCLDY    36  33  89 SE5       29.86R WCI  32
MANKATO          N/A     36  35  96 S6        29.89R WCI  31
WORTHINGTON    CLOUDY    39  37  92 S10       29.85S WCI  32
FAIRMONT       CLOUDY    35  35 100 S8        29.88S FOG     WCI  29
$$

...SOUTHWEST WISCONSIN...


CITY           SKY/WX    TMP DP  RH WIND       PRES   REMARKS
LA CROSSE      CLEAR     31  29  92 SE5       29.94R WCI  26
PRAIRIE DU CHI MOCLDY    29  28  95 CALM      29.95R
BOSCOBEL       CLEAR     26  24  92 CALM      29.95R
LONE ROCK      CLEAR     28  26  92 CALM      29.95R
PLATTEVILLE    CLOUDY    36  36 100 CALM      29.93R
FORT MC COY    CLEAR     24  23  95 CALM      29.95R
CAMP DOUGLAS   CLEAR     26  24  92 CALM      29.93R
MAUSTON-NEW LI SUNNY     29  28  95 CALM      29.93R
VIROQUA        FAIR      41  35  79 CALM      29.93R
WIS DELLS      CLEAR     31  29  92 CALM      29.94R
$$

...ELSEWHERE IN WISCONSIN...


CITY           SKY/WX    TMP DP  RH WIND       PRES   REMARKS
MILWAUKEE      CLOUDY    45  32  60 NW5       29.92R
MADISON        CLEAR     29  27  92 CALM      29.93R
GREEN BAY      CLOUDY    37  33  85 S3        29.89R
EAU CLAIRE     CLEAR     28  27  96 CALM      29.92R FOG
BLACK RVR FLS  FAIR      24  24 100 CALM      29.93R
MEDFORD        CLEAR     35  31  87 NW3       29.90R
WAUSAU         CLEAR     35  31  85 CALM      29.89R
WIS RAPIDS     CLEAR     30  28  92 CALM      29.93R
MARSHFIELD     CLEAR     37  31  78 CALM      29.90R
RICE LAKE      PTCLDY    32  31  97 CALM      29.92R
$$

...NORTHEAST IOWA...


CITY           SKY/WX    TMP DP  RH WIND       PRES   REMARKS
WATERLOO       FOG       27  26  96 CALM      29.92R VSB 1/4
DUBUQUE        CLEAR     34  33  96 CALM      29.92R
DECORAH        CLEAR     34  34 100 CALM      29.91S FOG
MASON CITY     FOG       31  30  96 CALM      29.91S VSB 1/4
CHARLES CITY   FOG       34  34 100 CALM      29.92R VSB 1/2
OELWEIN        CLEAR     34  34 100 S3        29.93R
$$

...ELSEWHERE IN IOWA...


CITY           SKY/WX    TMP DP  RH WIND       PRES   REMARKS
DES MOINES     CLEAR     41  35  79 SE7       29.92R
IOWA CITY      CLOUDY    31  28  89 CALM      29.95R
FORT DODGE     MOCLDY    37  34  87 SE3       29.89S
MARSHALLTOWN   FOG       28  28 100 CALM      29.91R VSB 1/4
CEDAR RAPIDS   CLOUDY    32  32 100 CALM      29.92R
$$

...NORTHERN ILLINOIS...


CITY           SKY/WX    TMP DP  RH WIND       PRES   REMARKS
CHICAGO-OHARE  CLEAR     37  33  85 CALM      29.92R
CHICAGO-MIDWAY PTCLDY    43  35  73 SW7       29.93R
MOLINE         CLOUDY    31  26  82 CALM      29.93R
ROCKFORD       PTCLDY    31  29  92 CALM      29.94S
PEORIA         CLEAR     38  36  92 CALM      29.95R
$$

NOTE: "FAIR" INDICATES FEW OR NO CLOUDS BELOW 12,000 FEET WITH NO
SIGNIFICANT WEATHER AND/OR OBSTRUCTIONS TO VISIBILITY. WIND
SPEEDS ARE IN MILES-PER-HOUR.




USA.gov is the U.S. government's official web portal to all federal, state and local government web resources and services.